Dalhart, TX

1:18 PM CDT on August 23, 2017 (GMT -0500)
Dalhart Municipal

Weather History for KDHT - January, 2014

Change the Weather History Date:

Thursday, January 16, 2014

  Actual Average Record
Temperature  
Mean Temperature 40 °F 35 °F  
Max Temperature 51 °F 50 °F 74 °F (1974)
Min Temperature 28 °F 19 °F 3 °F (2007)
Degree Days  
Heating Degree Days 25 30  
Month to date heating degree days 471 491  
Since 1 July heating degree days 2406 2434  
Cooling Degree Days 0 0  
Month to date cooling degree days 0 0  
Year to date cooling degree days 0 0  
Moisture  
Dew Point 17 °F    
Average Humidity 41    
Maximum Humidity 58    
Minimum Humidity 24    
Precipitation  
Precipitation 0.00 in 0.02 in 0.52 in (1960)
Month to date precipitation T 0.23  
Year to date precipitation T 0.23  
Snow  
Snow 0.00 in 0.20 in 6.00 in (1960)
Month to date snowfall 1.5 2.0  
Since 1 July snowfall 11.0 8.2  
Snow Depth 0.00 in    
Sea Level Pressure  
Sea Level Pressure 30.19 in    
Wind  
Wind Speed 11 mph (North)    
Max Wind Speed 30 mph    
Max Gust Speed 38 mph    
Visibility 10 miles    
Events      
T = Trace of Precipitation, MM = Missing Value Source: NWS Daily Summary

Daily Weather History Graph

Daily Weather History Graph

Search for Another Location

Airport or City:

Trip Planner

Search our weather history database for the weather conditions in past years. The results will help you decide how hot, cold, wet, or windy it might be!

Date:

Astronomy

Jan. 16, 2014 Rise Set
Actual Time 7:59 AM CST 6:00 PM CST
Civil Twilight 7:31 AM CST 6:28 PM CST
Nautical Twilight 7:00 AM CST 6:59 PM CST
Astronomical Twilight 6:29 AM CST 7:30 PM CST
Moon 6:51 PM CST (1/16) 7:57 AM CST (1/16)
Length of Visible Light 10h 56m
Length of Day
10h 00m
Full, 100% of the Moon is Illuminated
Jan 16
Full
Jan 23
Last Quarter
Jan 30
New
Feb 6
First Quarter
Feb 14
Full

Hourly Weather History & Observations

Time (CST) Temp. Windchill Dew Point Humidity Pressure Visibility Wind Dir Wind Speed Gust Speed Precip Events Conditions
12:53 AM 35.1 °F 29.3 °F 17.1 °F 48% 30.03 in 10.0 mi NNW 6.9 mph - N/A   Clear
1:53 AM 36.0 °F 28.5 °F 17.1 °F 46% 30.03 in 10.0 mi NNW 10.4 mph - N/A   Clear
2:53 AM 36.0 °F 28.5 °F 18.0 °F 48% 30.05 in 10.0 mi North 10.4 mph - N/A   Clear
3:53 AM 35.1 °F 26.4 °F 17.1 °F 48% 30.05 in 10.0 mi NNW 12.7 mph - N/A   Clear
4:53 AM 30.9 °F 22.8 °F 17.1 °F 57% 30.08 in 10.0 mi NNW 9.2 mph - N/A   Clear
5:53 AM 30.9 °F 21.2 °F 15.1 °F 52% 30.11 in 10.0 mi NNW 12.7 mph - N/A   Clear
6:53 AM 30.0 °F 21.7 °F 15.1 °F 54% 30.14 in 10.0 mi NNW 9.2 mph - N/A   Clear
7:53 AM 30.9 °F 22.2 °F 15.1 °F 52% 30.19 in 10.0 mi North 10.4 mph - N/A   Clear
8:53 AM 37.0 °F 31.0 °F 16.0 °F 42% 30.21 in 10.0 mi North 8.1 mph - N/A   Clear
9:53 AM 43.0 °F 33.1 °F 16.0 °F 34% 30.27 in 10.0 mi NNE 26.5 mph 38.0 mph N/A   Clear
10:53 AM 44.1 °F 35.0 °F 19.0 °F 37% 30.29 in 10.0 mi NE 24.2 mph 32.2 mph N/A   Clear
11:53 AM 45.0 °F 36.9 °F 19.0 °F 36% 30.26 in 10.0 mi NNE 20.7 mph - N/A   Clear
12:53 PM 48.0 °F - 18.0 °F 30% 30.21 in 10.0 mi NNE 15.0 mph - N/A   Clear
1:53 PM 50.0 °F - 18.0 °F 28% 30.18 in 10.0 mi North 10.4 mph 20.7 mph N/A   Clear
2:53 PM 51.1 °F - 17.1 °F 26% 30.17 in 10.0 mi NNE 11.5 mph - N/A   Clear
3:53 PM 50.0 °F - 16.0 °F 26% 30.17 in 10.0 mi NNE 6.9 mph - N/A   Clear
4:53 PM 50.0 °F - 16.0 °F 26% 30.19 in 10.0 mi NE 10.4 mph - N/A   Clear
5:53 PM 44.1 °F 40.1 °F 16.0 °F 32% 30.22 in 10.0 mi NE 6.9 mph - N/A   Clear
6:53 PM 37.9 °F 32.1 °F 16.0 °F 41% 30.26 in 10.0 mi NE 8.1 mph - N/A   Clear
7:53 PM 37.9 °F 33.5 °F 16.0 °F 41% 30.27 in 10.0 mi NE 5.8 mph - N/A   Clear
8:53 PM 36.0 °F 31.1 °F 17.1 °F 46% 30.28 in 10.0 mi North 5.8 mph - N/A   Clear
9:53 PM 35.1 °F 28.6 °F 17.1 °F 48% 30.30 in 10.0 mi North 8.1 mph - N/A   Partly Cloudy
10:53 PM 30.9 °F 23.5 °F 16.0 °F 54% 30.32 in 10.0 mi NNW 8.1 mph - N/A   Clear
11:53 PM 28.9 °F 20.4 °F 16.0 °F 58% 30.32 in 10.0 mi NNW 9.2 mph - N/A   Partly Cloudy